Weather reports worldwide

Advertisment
Deuselbach, Germany (10615): temperature & dewpoint: 10.09.2019 17:00:00 - 16.09.2019 17:00:00 (CEST)Deuselbach, Germany (10615): temperature 5cm & temperature -5cm: 10.09.2019 17:00:00 - 16.09.2019 17:00:00 (CEST)Deuselbach, Germany (10615): temperature -20cm & temperature -100cm: 10.09.2019 17:00:00 - 16.09.2019 17:00:00 (CEST)Deuselbach, Germany (10615): wind speed & gusts: 10.09.2019 17:00:00 - 16.09.2019 17:00:00 (CEST)Deuselbach, Germany (10615): wind direction: 10.09.2019 17:00:00 - 16.09.2019 17:00:00 (CEST)Deuselbach, Germany (10615): reduced air pressure: 10.09.2019 17:00:00 - 16.09.2019 17:00:00 (CEST)Deuselbach, Germany (10615): visibility: 10.09.2019 17:00:00 - 16.09.2019 17:00:00 (CEST)Deuselbach, Germany (10615): sunshine duration: 10.09.2019 17:00:00 - 16.09.2019 17:00:00 (CEST)Deuselbach, Germany (10615): precipitation: 10.09.2019 17:00:00 - 16.09.2019 17:00:00 (CEST)
Date & Time tt [°C] td [°C] tt 5cm [°C] tt -5cm [°C] tt -20cm [°C] tt -100cm [°C] ff [km/h] ff [kn] fx [km/h] fx [kn] dd ppp [hPa] vv [km] sd [min] rr [mm]
16.09.2019 17:00:00 19,6 10,0 19,4 19,8 17,3 15,6 6 3 12 6 NW 1018,3 58 0 0,0
16.09.2019 16:00:00 19,7 7,8 19,9 20,3 16,9 15,6 11 6 22 12 NW 1018,6 58 2 0,0
16.09.2019 15:00:00 21,2 4,4 23,1 20,1 16,4 15,6 17 9 24 13 W 1018,7 47 26 0,0
16.09.2019 14:00:00 20,0 10,0 22,8 19,1 15,9 15,6 19 10 25 13 NW 1019,3 75 12 0,0
16.09.2019 13:00:00 19,8 9,5 21,3 18,1 15,5 15,5 6 3 18 10 NNW 1019,7 45 11 0,0
16.09.2019 12:00:00 19,0 9,1 21,2 16,7 15,1 15,5 9 5 14 7 NNW 1020,1 60 13 0,0
16.09.2019 11:00:00 18,6 7,5 20,1 15,0 15,0 15,5 4 2 6 4 WNW 1020,1 75 16 0,0
16.09.2019 10:00:00 17,1 7,2 17,5 13,6 15,0 15,5 4 2 8 5 S 1020,3 75 22 0,0
16.09.2019 09:00:00 13,6 8,3 13,7 12,7 15,1 15,5 4 2 10 6 S 1020,9 53 19 0,0
16.09.2019 08:00:00 11,5 7,0 8,4 12,4 15,4 15,5 6 3 10 6 SE 1021,5 52 0 0,0
16.09.2019 07:00:00 11,9 7,1 8,2 12,7 15,6 15,5 5 3 9 5 SE 1021,7 53 0 0,0
16.09.2019 06:00:00 11,6 7,2 8,8 12,9 15,9 15,5 6 3 10 5 ESE 1021,8 60 0 0,0
16.09.2019 05:00:00 12,2 7,0 8,0 13,2 16,2 15,5 8 4 9 5 SSE 1022,0 75 0 0,0
16.09.2019 04:00:00 12,8 7,2 7,5 13,6 16,6 15,5 6 3 10 5 SSE 1022,1 62 0 0,0
16.09.2019 03:00:00 13,7 6,4 8,3 14,2 16,9 15,5 7 4 9 5 SSE 1022,4 64 0 0,0
16.09.2019 02:00:00 12,5 6,9 7,2 14,8 17,3 15,5 6 3 10 5 SE 1022,7 68 0 0,0
16.09.2019 01:00:00 13,8 6,8 8,2 15,5 17,7 15,5 8 4 11 6 SE 1022,7 75 0 0,0
16.09.2019 00:00:00 14,6 8,8 9,8 16,2 18,0 15,5 7 4 9 5 SSE 1022,7 59 0 0,0
15.09.2019 23:00:00 14,6 9,2 11,1 17,1 18,4 15,5 6 3 9 5 S 1022,7 71 0 0,0
15.09.2019 22:00:00 16,3 9,5 12,0 18,0 18,7 15,5 7 4 8 5 SSW 1022,3 72 0 0,0
15.09.2019 21:00:00 17,2 9,6 12,0 19,2 18,9 15,5 6 3 8 4 S 1022,0 53 0 0,0
15.09.2019 20:00:00 19,0 10,2 14,5 20,7 19,0 15,5 4 2 12 6 SW 1021,5 75 33 0,0
15.09.2019 19:00:00 22,3 9,6 20,6 22,2 18,9 15,5 11 6 18 10 WNW 1020,7 60 60 0,0
15.09.2019 18:00:00 23,0 10,4 23,3 23,0 18,5 15,5 12 7 21 11 NW 1020,7 68 60 0,0
15.09.2019 17:00:00 23,4 8,6 25,0 23,3 18,0 15,5 14 8 29 15 NNW 1021,2 59 60 0,0
15.09.2019 16:00:00 23,4 7,8 26,4 23,0 17,4 15,5 16 9 27 15 WNW 1021,7 60 60 0,0
15.09.2019 15:00:00 23,2 12,0 26,2 22,2 16,7 15,5 16 9 26 14 NW 1022,3 75 60 0,0
15.09.2019 14:00:00 21,7 11,9 25,4 20,8 16,1 15,5 16 9 22 12 NNW 1023,0 75 60 0,0
15.09.2019 13:00:00 21,0 11,1 24,5 19,1 15,5 15,5 11 6 19 10 W 1023,4 35 60 0,0
15.09.2019 12:00:00 19,5 11,9 22,6 17,5 15,1 15,5 11 6 19 10 NNW 1024,2 49 60 0,0
15.09.2019 11:00:00 19,2 11,9 20,5 15,9 14,8 15,5 5 3 9 5 WNW 1024,5 62 60 0,0
15.09.2019 10:00:00 17,1 11,2 17,6 14,0 14,7 15,5 3 2 5 3 N 1025,0 49 60 0,0
15.09.2019 09:00:00 14,8 11,6 13,0 12,7 14,8 15,4 4 2 6 3 SSW 1025,5 75 60 0,0
15.09.2019 08:00:00 12,1 10,9 10,3 12,3 15,0 15,4 6 3 7 4 S 1026,0 48 14 0,0
15.09.2019 07:00:00 12,0 10,6 8,6 12,5 15,3 15,4 6 3 8 4 SSW 1025,8 58 0 0,0
15.09.2019 06:00:00 12,3 10,5 8,1 12,7 15,5 15,4 5 3 7 4 S 1025,7 54 0 0,0
15.09.2019 05:00:00 12,3 10,2 8,6 13,0 15,8 15,4 5 3 7 4 S 1026,1 56 0 0,0
15.09.2019 04:00:00 13,2 10,3 8,0 13,4 16,1 15,4 4 2 7 4 ESE 1026,3 53 0 0,0
15.09.2019 03:00:00 13,6 10,0 7,3 13,8 16,4 15,4 3 1 6 3 E 1026,7 58 0 0,0
15.09.2019 02:00:00 13,1 9,4 7,9 14,3 16,7 15,4 5 3 8 4 SSW 1027,3 48 0 0,0
15.09.2019 01:00:00 14,1 9,5 9,7 14,9 17,1 15,4 4 2 10 6 N 1027,6 54 0 0,0
15.09.2019 00:00:00 14,6 9,7 10,6 15,4 17,4 15,4 4 2 14 8 NW 1027,6 53 0 0,0
14.09.2019 23:00:00 15,5 10,1 10,0 16,2 17,8 15,4 5 3 10 5 ESE 1027,8 51 0 0,0
14.09.2019 22:00:00 14,3 10,1 10,2 17,1 18,1 15,4 4 2 10 6 E 1028,9 61 0 0,0
14.09.2019 21:00:00 15,3 10,5 10,9 18,3 18,4 15,4 6 4 11 6 SSE 1028,8 58 0 0,0
14.09.2019 20:00:00 17,9 10,9 14,4 19,7 18,5 15,4 11 6 17 9 NE 1028,1 64 33 0,0
14.09.2019 19:00:00 20,2 9,8 19,5 21,2 18,4 15,4 15 8 20 11 ESE 1027,5 68 60 0,0
14.09.2019 18:00:00 21,3 10,1 23,5 22,1 18,1 15,4 9 5 20 11 ESE 1027,4 72 60 0,0
14.09.2019 17:00:00 21,4 10,1 25,0 22,4 17,6 15,4 11 6 20 11 E 1027,8 59 60 0,0
14.09.2019 16:00:00 20,9 8,7 26,3 22,0 17,0 15,4 12 6 22 12 E 1028,4 49 60 0,0
14.09.2019 15:00:00 20,9 9,9 25,8 21,2 16,4 15,4 10 6 22 12 E 1029,1 75 60 0,0
14.09.2019 14:00:00 20,4 10,2 25,3 19,9 15,9 15,4 11 6 22 12 E 1029,8 62 60 0,0
14.09.2019 13:00:00 19,7 10,4 23,9 18,5 15,4 15,4 10 6 21 11 E 1030,5 56 60 0,0
14.09.2019 12:00:00 18,5 10,9 22,5 16,9 15,0 15,4 14 7 22 12 E 1031,2 66 60 0,0
14.09.2019 11:00:00 16,4 11,3 18,4 15,4 14,8 15,4 15 8 23 12 E 1031,6 55 60 0,0
14.09.2019 10:00:00 14,8 11,4 15,3 13,9 14,8 15,4 8 5 24 13 NE 1031,9 52 60 0,0
14.09.2019 09:00:00 13,0 11,0 12,3 13,1 14,9 15,4 15 8 23 13 ENE 1032,6 45 58 0,0
14.09.2019 08:00:00 12,6 10,6 10,8 12,9 15,1 15,4 10 5 27 15 ENE 1032,9 52 9 0,0
14.09.2019 07:00:00 13,0 10,3 10,2 13,1 15,3 15,4 14 8 23 12 ENE 1032,2 55 0 0,0
14.09.2019 06:00:00 13,1 10,9 10,5 13,4 15,5 15,4 13 7 27 14 ENE 1032,3 41 0 0,0
14.09.2019 05:00:00 13,1 11,6 10,8 13,7 15,8 15,4 13 7 20 11 E 1032,6 27 0 0,0
14.09.2019 04:00:00 13,5 11,7 10,9 14,1 16,0 15,4 9 5 19 11 ENE 1032,8 36 0 0,0
14.09.2019 03:00:00 13,8 11,9 10,5 14,7 16,2 15,4 8 4 12 6 ENE 1032,9 39 0 0,0
14.09.2019 02:00:00 13,7 12,8 11,7 15,1 16,4 15,4 7 4 9 5 NE 1033,2 18 0 0,0
14.09.2019 01:00:00 14,1 13,0 12,3 15,4 16,6 15,4 7 4 15 8 NE 1033,2 16 0 0,0
14.09.2019 00:00:00 14,9 13,0 13,4 15,8 16,8 15,4 9 5 13 7 ENE 1033,0 23 0 0,0
13.09.2019 23:00:00 15,2 12,6 13,6 16,1 17,0 15,4 8 5 12 6 E 1033,1 32 0 0,0
13.09.2019 22:00:00 14,5 12,2 12,7 16,7 17,3 15,4 6 3 8 4 SE 1033,1 68 0 0,0
13.09.2019 21:00:00 14,9 12,6 12,3 17,4 17,4 15,4 4 2 9 5 ESE 1032,8 75 0 0,0
13.09.2019 20:00:00 16,6 12,8 13,5 18,6 17,5 15,4 6 3 18 10 E 1032,1 69 0 0,0
13.09.2019 19:00:00 17,6 13,8 17,3 19,7 17,4 15,4 13 7 26 14 NE 1031,8 67 13 0,0
13.09.2019 18:00:00 19,5 13,0 19,3 20,9 17,0 15,4 9 5 14 7 NNW 1031,3 75 39 0,0
13.09.2019 17:00:00 20,3 13,0 23,2 20,5 16,5 15,4 8 4 13 7 W 1031,0 53 52 0,0
13.09.2019 16:00:00 19,4 13,3 23,0 19,1 16,2 15,4 5 3 11 6 S 1031,6 52 30 0,0
13.09.2019 15:00:00 17,9 13,2 20,8 18,0 15,9 15,4 6 3 18 10 W 1032,1 75 3 0,0
13.09.2019 14:00:00 16,9 13,0 18,5 17,8 15,6 15,4 6 3 18 10 N 1032,6 72 0 0,0
13.09.2019 13:00:00 17,0 13,1 19,2 17,4 15,3 15,4 10 5 18 10 NW 1032,3 75 4 0,0
13.09.2019 12:00:00 16,6 13,4 18,4 16,3 15,1 15,4 14 8 19 11 NNW 1032,6 71 5 0,0
13.09.2019 11:00:00 15,9 13,5 17,1 15,3 15,0 15,4 11 6 17 9 NW 1032,5 71 0 0,0
13.09.2019 10:00:00 15,3 14,2 15,7 14,8 14,9 15,4 9 5 13 7 NNW 1032,1 35 0 0,0
13.09.2019 09:00:00 15,1 13,8 15,2 14,5 14,9 15,4 5 3 11 6 NW 1031,7 46 0 0,0
13.09.2019 08:00:00 15,0 14,0 14,8 14,2 15,0 15,4 7 4 14 8 SW 1031,4 38 0 0,0
13.09.2019 07:00:00 14,9 13,9 14,4 14,0 15,0 15,4 10 5 16 9 WSW 1031,3 31 0 0,0
13.09.2019 06:00:00 14,6 13,9 13,9 13,8 15,1 15,4 8 4 14 8 SW 1030,8 26 0 0,0
13.09.2019 05:00:00 14,5 13,7 13,0 14,1 15,3 15,4 10 5 15 8 SW 1030,9 36 0 0,0
13.09.2019 04:00:00 15,0 13,5 13,1 14,1 15,4 15,4 8 4 16 9 SW 1030,8 64 0 0,0
13.09.2019 03:00:00 15,4 13,4 12,9 14,2 15,6 15,4 8 4 15 8 WSW 1030,9 62 0 0,0
13.09.2019 02:00:00 15,4 13,0 12,8 14,5 15,8 15,4 9 5 13 7 SW 1031,0 75 0 0,0
13.09.2019 01:00:00 15,6 12,9 13,4 14,9 15,9 15,5 11 6 22 12 WSW 1030,9 75 0 0,0
13.09.2019 00:00:00 15,6 13,0 13,4 15,4 16,1 15,5 11 6 19 10 SW 1030,9 75 0 0,0
12.09.2019 23:00:00 16,1 13,2 15,0 15,7 16,2 15,5 15 8 19 10 WSW 1031,0 75 0 0,0
12.09.2019 22:00:00 16,9 13,4 16,2 15,9 16,4 15,5 11 6 15 8 SW 1030,8 75 0 0,0
12.09.2019 21:00:00 17,1 12,9 15,0 16,5 16,5 15,5 12 6 14 8 WSW 1030,7 75 0 0,0
12.09.2019 20:00:00 18,2 12,6 16,1 17,4 16,6 15,5 13 7 24 13 W 1029,8 74 35 0,0
12.09.2019 19:00:00 19,8 12,2 18,9 18,3 16,4 15,5 15 8 31 17 W 1029,2 75 59 0,0
12.09.2019 18:00:00 20,5 12,5 20,7 18,6 16,2 15,5 21 11 31 17 W 1029,0 75 42 0,0
12.09.2019 17:00:00 20,0 12,8 20,4 18,9 15,8 15,5 17 9 35 19 WSW 1029,4 75 45 0,0
12.09.2019 16:00:00 20,2 14,4 21,6 18,2 15,5 15,5 19 10 35 19 WSW 1029,5 75 37 0,0
12.09.2019 15:00:00 18,2 15,0 18,5 16,9 15,3 15,5 21 11 29 16 W 1030,1 56 2 0,1
12.09.2019 14:00:00 16,9 15,1 17,0 16,6 15,1 15,5 13 7 27 14 WNW 1030,1 55 0 0,0
12.09.2019 13:00:00 16,6 15,2 16,5 16,4 14,8 15,5 11 6 28 15 WSW 1030,2 11 0 0,0
12.09.2019 12:00:00 16,6 14,8 17,0 15,6 14,6 15,6 17 9 28 15 WSW 1030,0 71 0 0,0
12.09.2019 11:00:00 15,8 14,7 15,9 14,9 14,4 15,6 21 11 28 15 W 1029,6 35 0 0,0
12.09.2019 10:00:00 15,4 14,9 15,6 14,3 14,4 15,6 13 7 21 11 W 1029,2 30 0 0,1
12.09.2019 09:00:00 14,3 14,0 14,4 13,9 14,3 15,6 10 5 15 8 WSW 1028,8 4,6 0 0,3
12.09.2019 08:00:00 13,6 13,4 13,5 13,7 14,3 15,6 11 6 19 11 WSW 1028,5 3,1 0 0,1
12.09.2019 07:00:00 13,3 12,9 13,1 13,6 14,4 15,6 14 8 21 11 WSW 1028,1 14 0 0,0
12.09.2019 06:00:00 13,3 12,4 12,9 13,5 14,4 15,6 13 7 26 14 WSW 1027,6 27 0 0,0
12.09.2019 05:00:00 13,9 11,7 13,6 13,5 14,4 15,6 14 8 26 14 SW 1027,6 60 0 0,0
12.09.2019 04:00:00 14,3 11,4 13,2 13,5 14,5 15,6 19 11 30 16 WSW 1027,6 9 0 0,0
12.09.2019 03:00:00 14,9 9,9 14,4 13,4 14,6 15,6 11 6 37 20 SW 1026,9 67 0 0,0
12.09.2019 02:00:00 15,7 7,7 14,9 13,5 14,7 15,7 13 7 23 12 WSW 1026,6 75 0 0,0
12.09.2019 01:00:00 15,6 7,8 14,7 13,6 14,8 15,7 13 7 21 11 WSW 1026,2 69 0 0,0
12.09.2019 00:00:00 15,6 8,1 14,6 13,9 14,9 15,7 13 7 19 10 WSW 1026,1 75 0 0,0
11.09.2019 23:00:00 15,7 8,1 14,7 14,1 15,0 15,7 13 7 23 12 WSW 1026,0 67 0 0,0
11.09.2019 22:00:00 15,8 8,2 15,1 14,4 15,1 15,7 16 8 26 14 W 1025,6 75 0 0,0
11.09.2019 21:00:00 15,7 8,3 14,7 14,7 15,2 15,7 8 5 16 9 W 1025,3 58 0 0,0
11.09.2019 20:00:00 15,8 8,2 15,1 15,0 15,2 15,7 10 5 16 9 WSW 1024,8 63 0 0,0
11.09.2019 19:00:00 16,0 9,0 15,5 15,4 15,2 15,7 10 6 22 12 WSW 1024,3 62 0 0,0
11.09.2019 18:00:00 16,2 8,9 16,1 15,6 15,2 15,8 19 10 33 18 W 1024,3 51 0 0,0
11.09.2019 17:00:00 16,8 7,6 16,6 16,0 15,1 15,8 24 13 35 19 W 1023,8 49 0 0,0
11.09.2019 16:00:00 17,5 7,8 17,7 16,5 14,8 15,8 21 12 39 21 W 1023,5 59 1 0,0
11.09.2019 15:00:00 17,7 7,1 18,5 16,4 14,5 15,8 20 11 30 16 WSW 1023,4 66 0 0,0
11.09.2019 14:00:00 17,3 6,6 18,3 16,4 14,0 15,8 19 11 32 17 WSW 1023,4 49 9 0,0
11.09.2019 13:00:00 18,2 7,0 20,3 15,9 13,5 15,8 22 12 36 20 W 1023,0 60 43 0,0
11.09.2019 12:00:00 17,5 5,5 19,7 15,0 13,0 15,8 21 12 31 17 W 1023,2 44 57 0,0
11.09.2019 11:00:00 17,5 6,5 18,8 13,2 12,7 15,8 13 7 21 11 WSW 1023,1 60 60 0,0
11.09.2019 10:00:00 15,9 7,3 16,1 11,4 12,6 15,8 7 4 12 7 W 1023,0 53 60 0,0
11.09.2019 09:00:00 12,7 7,8 11,0 10,0 12,7 15,8 0 0 6 4 N 1023,4 75 60 0,0
11.09.2019 08:00:00 9,0 5,5 7,1 9,5 12,9 15,9 6 4 8 5 SSE 1023,9 66 17 0,0
11.09.2019 07:00:00 8,2 5,8 5,2 9,7 13,2 15,9 6 3 8 4 S 1023,6 56 0 0,0
11.09.2019 06:00:00 8,4 5,7 5,3 10,0 13,4 15,9 6 3 7 4 S 1023,1 56 0 0,0
11.09.2019 05:00:00 8,1 5,9 5,2 10,3 13,7 15,9 6 3 7 4 S 1022,8 52 0 0,0
11.09.2019 04:00:00 8,5 5,8 5,7 10,7 14,0 15,9 6 3 8 4 SSE 1022,6 57 0 0,0
11.09.2019 03:00:00 8,8 5,6 5,5 11,1 14,3 15,9 4 2 8 4 SE 1022,5 75 0 0,0
11.09.2019 02:00:00 9,5 5,7 5,8 11,5 14,6 15,9 5 3 7 4 ESE 1022,2 65 0 0,0
11.09.2019 01:00:00 9,5 5,6 6,3 12,0 15,0 15,9 4 2 9 5 SE 1022,2 72 0 0,0
11.09.2019 00:00:00 10,5 5,4 6,2 12,5 15,3 16,0 6 3 8 4 ESE 1022,0 75 0 0,0
10.09.2019 23:00:00 10,0 4,9 6,7 13,2 15,7 16,0 5 3 11 6 ESE 1022,0 75 0 0,0
10.09.2019 22:00:00 9,9 4,6 7,7 14,1 16,1 16,0 9 5 12 6 SSE 1021,4 75 0 0,0
10.09.2019 21:00:00 11,1 4,8 8,4 15,2 16,3 16,0 8 4 12 6 SSE 1020,7 67 0 0,0
10.09.2019 20:00:00 13,8 5,0 9,4 16,5 16,5 16,0 3 2 10 6 SSW 1019,4 70 43 0,0
10.09.2019 19:00:00 16,6 3,2 15,2 17,7 16,4 16,0 10 5 18 10 WNW 1018,4 72 60 0,0
10.09.2019 18:00:00 17,3 2,4 17,8 18,6 16,2 16,0 11 6 22 12 NW 1018,0 74 60 0,0
10.09.2019 17:00:00 17,4 2,2 19,1 18,9 15,8 16,1 8 4 21 12 NNW 1017,8 59 59 0,0

tt = temperature
td = dewpoint
tt 5cm = temperature 5cm
tt -5cm = temperature -5cm
tt -20cm = temperature -20cm
tt -100cm = temperature -100cm
ff = wind speed
fx = gusts
dd = wind direction
ppp = reduced air pressure
vv = visibility
sd = sunshine duration
rr = precipitation

Next stations